Monarch Pass, CO

12:29 AM MDT on March 30, 2017 (GMT -0600)
Monarch Pass

Weather History for KMYP - September, 2012

Change the Weather History Date:

Thursday, September 20, 2012

  Actual Average (KGUC) Record (KGUC)
Temperature  
Mean Temperature 47 °F -  
Max Temperature 55 °F 65 °F 78 °F (2014)
Min Temperature 39 °F 31 °F 26 °F (2002)
Degree Days  
Heating Degree Days 18    
Moisture  
Dew Point 16 °F    
Average Humidity 30    
Maximum Humidity 42    
Minimum Humidity 20    
Precipitation  
Precipitation 0.00 in - - ()
Sea Level Pressure  
Sea Level Pressure 30.69 in    
Wind  
Wind Speed 9 mph (West)    
Max Wind Speed 18 mph    
Max Gust Speed 24 mph    
Averages and records for this station are not official NWS values.
T = Trace of Precipitation, MM = Missing Value Source: NWS Daily Summary

Daily Weather History Graph

Daily Weather History Graph

Search for Another Location

Airport or City:

Trip Planner

Search our weather history database for the weather conditions in past years. The results will help you decide how hot, cold, wet, or windy it might be!

Date:

Astronomy

Sep. 20, 2012 Rise Set
Actual Time 6:51 AM MDT 7:04 PM MDT
Civil Twilight 6:24 AM MDT 7:30 PM MDT
Nautical Twilight 5:53 AM MDT 8:01 PM MDT
Astronomical Twilight 5:22 AM MDT 8:32 PM MDT
Moon 12:07 PM MDT (9/20) 10:13 PM MDT (9/20)
Length of Visible Light 13h 05m
Length of Day
12h 12m
Waxing Crescent, 27% of the Moon is Illuminated
Sep 20
Waxing Crescent
Sep 22
First Quarter
Sep 29
Full
Oct 8
Last Quarter
Oct 15
New

Hourly Weather History & Observations

Time (MDT) Temp. Windchill Dew Point Humidity Pressure Visibility Wind Dir Wind Speed Gust Speed Precip Events Conditions
12:14 AM 42.8 °F 36.6 °F 17.6 °F 36% 30.72 in - ENE 11.5 mph - N/A   Clear
12:34 AM 41.0 °F 35.2 °F 17.6 °F 39% 30.72 in - NE 9.2 mph - N/A   Clear
12:54 AM 41.0 °F 37.1 °F 17.6 °F 39% 30.72 in - NE 5.8 mph - N/A   Clear
1:14 AM 42.8 °F - 17.6 °F 36% 30.72 in - Calm Calm - N/A   Clear
1:34 AM 42.8 °F 41.1 °F 17.6 °F 36% 30.72 in - NNW 3.5 mph - N/A   Clear
1:54 AM 42.8 °F - 17.6 °F 36% 30.71 in - Calm Calm - N/A   Clear
2:14 AM 42.8 °F 40.1 °F 17.6 °F 36% 30.71 in - NE 4.6 mph - N/A   Clear
2:34 AM 41.0 °F - 17.6 °F 39% 30.71 in - Calm Calm - N/A   Clear
2:54 AM 41.0 °F 39.0 °F 17.6 °F 39% 30.70 in - NE 3.5 mph - N/A   Clear
3:14 AM 41.0 °F - 19.4 °F 42% 30.70 in - Calm Calm - N/A   Clear
3:34 AM 41.0 °F 37.1 °F 17.6 °F 39% 30.69 in - WNW 5.8 mph - N/A   Clear
3:54 AM 41.0 °F 35.2 °F 15.8 °F 36% 30.69 in - West 9.2 mph - N/A   Clear
4:14 AM 41.0 °F 34.7 °F 17.6 °F 39% 30.69 in - West 10.4 mph - N/A   Clear
4:34 AM 41.0 °F 34.3 °F 15.8 °F 36% 30.68 in - West 11.5 mph - N/A   Clear
4:54 AM 41.0 °F 34.3 °F 14.0 °F 33% 30.68 in - WNW 11.5 mph - N/A   Clear
5:14 AM 41.0 °F 35.8 °F 14.0 °F 33% 30.69 in - WNW 8.1 mph - N/A   Clear
5:34 AM 39.2 °F 34.2 °F 14.0 °F 36% 30.69 in - WNW 6.9 mph - N/A   Clear
5:54 AM 41.0 °F 35.8 °F 14.0 °F 33% 30.68 in - WNW 8.1 mph - N/A   Clear
6:14 AM 41.0 °F 35.8 °F 12.2 °F 31% 30.68 in - WNW 8.1 mph - N/A   Clear
6:34 AM 41.0 °F 35.8 °F 12.2 °F 31% 30.68 in - WNW 8.1 mph - N/A   Clear
6:54 AM 41.0 °F 36.4 °F 12.2 °F 31% 30.68 in - WNW 6.9 mph - N/A   Clear
7:14 AM 41.0 °F 36.4 °F 12.2 °F 31% 30.68 in - WNW 6.9 mph - N/A   Clear
7:34 AM 39.2 °F 33.6 °F 12.2 °F 33% 30.69 in - West 8.1 mph - N/A   Clear
7:54 AM 39.2 °F 33.6 °F 14.0 °F 36% 30.69 in - WSW 8.1 mph - N/A   Clear
8:14 AM 41.0 °F 35.8 °F 14.0 °F 33% 30.69 in - West 8.1 mph - N/A   Clear
8:34 AM 41.0 °F 36.4 °F 14.0 °F 33% 30.69 in - West 6.9 mph - N/A   Clear
8:54 AM 42.8 °F 40.1 °F 15.8 °F 34% 30.70 in - SW 4.6 mph - N/A   Clear
9:14 AM 42.8 °F 38.0 °F 15.8 °F 34% 30.70 in - WSW 8.1 mph - N/A   Clear
9:34 AM 42.8 °F 38.6 °F 15.8 °F 34% 30.70 in - West 6.9 mph - N/A   Clear
9:54 AM 44.6 °F 40.2 °F 14.0 °F 29% 30.71 in - West 8.1 mph - N/A   Clear
10:14 AM 44.6 °F 39.7 °F 15.8 °F 31% 30.71 in - WSW 9.2 mph - N/A   Clear
10:34 AM 46.4 °F 41.1 °F 17.6 °F 32% 30.71 in - West 11.5 mph 16.1 mph N/A   Clear
10:54 AM 46.4 °F 40.4 °F 15.8 °F 29% 30.71 in - West 13.8 mph - N/A   Clear
11:14 AM 46.4 °F 40.7 °F 17.6 °F 32% 30.71 in - West 12.7 mph 18.4 mph N/A   Clear
11:34 AM 46.4 °F 40.4 °F 17.6 °F 32% 30.71 in - West 13.8 mph 19.6 mph N/A   Clear
11:54 AM 50.0 °F - 17.6 °F 28% 30.71 in - SW 13.8 mph 18.4 mph N/A   Clear
12:14 PM 48.2 °F - 15.8 °F 27% 30.71 in - NNW 4.6 mph - N/A   Clear
12:34 PM 51.8 °F - 17.6 °F 26% 30.71 in - SW 3.5 mph - N/A   Scattered Clouds
12:54 PM 50.0 °F - 17.6 °F 28% 30.70 in - SSW 9.2 mph 18.4 mph N/A   Mostly Cloudy
1:14 PM 51.8 °F - 15.8 °F 24% 30.70 in - South 12.7 mph 23.0 mph N/A   Overcast
1:54 PM 53.6 °F - 17.6 °F 24% 30.69 in - SSW 16.1 mph - N/A   Mostly Cloudy
2:14 PM 53.6 °F - 14.0 °F 21% 30.69 in - SW 13.8 mph 24.2 mph N/A   Scattered Clouds
2:34 PM 53.6 °F - 17.6 °F 24% 30.69 in - SW 13.8 mph 18.4 mph N/A   Scattered Clouds
2:54 PM 53.6 °F - 15.8 °F 22% 30.68 in - WSW 15.0 mph 19.6 mph N/A   Mostly Cloudy
3:14 PM 53.6 °F - 14.0 °F 21% 30.68 in - SW 11.5 mph 23.0 mph N/A   Mostly Cloudy
3:34 PM 55.4 °F - 17.6 °F 23% 30.68 in - WSW 8.1 mph - N/A   Mostly Cloudy
3:54 PM 53.6 °F - 14.0 °F 21% 30.68 in - Calm Calm - N/A   Overcast
4:14 PM 55.4 °F - 17.6 °F 23% 30.67 in - SW 15.0 mph 18.4 mph N/A   Mostly Cloudy
4:34 PM 55.4 °F - 14.0 °F 20% 30.68 in - West 11.5 mph 19.6 mph N/A   Mostly Cloudy
4:54 PM 55.4 °F - 15.8 °F 21% 30.67 in - SW 18.4 mph 21.9 mph N/A   Unknown
5:14 PM 53.6 °F - 17.6 °F 24% 30.68 in - WSW 13.8 mph 18.4 mph N/A   Overcast
5:34 PM 53.6 °F - 14.0 °F 21% 30.67 in - WNW 12.7 mph 21.9 mph N/A   Overcast
5:54 PM 53.6 °F - 15.8 °F 22% 30.68 in - West 12.7 mph 18.4 mph N/A   Unknown
6:14 PM 53.6 °F - 15.8 °F 22% 30.68 in - West 16.1 mph - N/A   Mostly Cloudy
6:34 PM 51.8 °F - 15.8 °F 24% 30.68 in - WSW 10.4 mph 18.4 mph N/A   Scattered Clouds
6:54 PM 50.0 °F - 14.0 °F 24% 30.68 in - West 12.7 mph - N/A   Clear
7:14 PM 48.2 °F - 14.0 °F 25% 30.68 in - West 17.3 mph 20.7 mph N/A   Clear
7:34 PM 46.4 °F 39.8 °F 14.0 °F 27% 30.68 in - West 16.1 mph - N/A   Clear
7:54 PM 46.4 °F 39.8 °F 14.0 °F 27% 30.69 in - West 16.1 mph - N/A   Clear
8:14 PM 46.4 °F 39.5 °F 14.0 °F 27% 30.69 in - West 17.3 mph - N/A   Clear
8:34 PM 46.4 °F 40.7 °F 14.0 °F 27% 30.70 in - WNW 12.7 mph - N/A   Scattered Clouds
8:54 PM 46.4 °F 40.4 °F 14.0 °F 27% 30.70 in - WNW 13.8 mph - N/A   Mostly Cloudy
9:14 PM 44.6 °F 38.8 °F 14.0 °F 29% 30.70 in - WNW 11.5 mph - N/A   Mostly Cloudy
9:34 PM 44.6 °F 38.8 °F 14.0 °F 29% 30.70 in - WNW 11.5 mph - N/A   Clear
9:54 PM 44.6 °F 42.2 °F 14.0 °F 29% 30.70 in - North 4.6 mph - N/A   Clear
10:11 PM 44.6 °F 38.4 °F 14.0 °F 29% 30.70 in - ENE 12.7 mph - N/A   Clear
10:34 PM 42.8 °F 35.8 °F 15.8 °F 34% 30.69 in - ENE 13.8 mph - N/A   Clear
10:54 PM 42.8 °F 34.5 °F 17.6 °F 36% 30.69 in - ENE 18.4 mph - N/A   Clear
11:14 PM 41.0 °F 32.2 °F 17.6 °F 39% 30.69 in - ENE 18.4 mph - N/A   Clear
11:34 PM 41.0 °F 32.8 °F 17.6 °F 39% 30.69 in - ENE 16.1 mph - N/A   Clear
11:54 PM 41.0 °F 32.8 °F 19.4 °F 42% 30.69 in - ENE 16.1 mph - N/A   Clear